GFSNE_850_spd_021.txt.gz
Wind_Speed
11 10 9 10 10 10 10 13 11 17 20 17 17 15 17 17 17 17 19 20 23 24 23 25 28 28 28 29 30 31 31 32 31 30 33 33 33 32
14 14 14 15 15 15 15 15 15 15 23 20 21 20 20 21 21 19 22 24 24 25 24 26 28 29 29 31 32 32 33 34 33 32 31 32 33 34
16 17 18 18 19 20 21 22 23 24 27 26 26 25 25 25 25 26 25 25 26 28 30 30 31 32 35 34 34 33 33 34 35 35 33 31 32 34
17 19 21 22 23 23 22 22 23 23 27 31 28 28 29 27 28 28 27 26 26 25 27 28 29 28 29 34 36 36 35 35 34 36 36 35 32 34
21 22 23 22 23 22 22 23 23 24 26 29 31 29 29 27 28 28 28 28 28 27 28 31 31 32 35 37 37 38 39 39 39 37 37 35 35 34
21 22 23 23 23 23 23 22 23 24 26 29 32 31 29 28 28 28 28 28 28 27 27 28 30 31 31 32 34 39 41 41 42 42 42 39 37 37
23 24 24 24 27 30 28 26 23 24 25 28 31 30 28 26 24 25 27 26 27 25 26 26 25 24 27 28 26 29 38 40 41 42 44 44 39 38
24 24 24 25 25 24 26 29 28 25 25 27 29 29 27 27 26 26 25 23 23 21 23 28 27 30 33 31 25 22 28 28 30 38 40 44 46 41
23 24 25 25 25 24 23 24 28 25 25 26 29 29 29 28 28 28 27 28 28 24 24 29 27 26 25 27 30 33 30 31 32 35 36 40 46 47
23 24 25 26 25 26 25 24 24 22 23 25 29 30 27 26 26 27 28 30 30 28 26 31 30 32 29 28 29 32 37 37 37 37 39 40 41 46
23 22 23 24 24 24 24 26 25 23 22 25 29 31 33 36 36 34 33 28 27 26 24 28 30 31 32 32 32 30 31 30 34 37 32 35 38 39
23 22 22 23 25 22 23 23 24 24 24 25 23 23 24 25 25 30 33 34 34 34 29 26 26 24 26 25 23 20 21 20 25 30 33 34 32 32
25 24 22 23 14 16 22 28 26 25 25 21 21 18 18 18 19 22 25 28 32 35 29 26 23 17 24 22 21 17 15 14 17 20 23 30 34 32
26 23 22 25 27 25 21 17 19 19 15 15 17 17 16 15 14 16 20 24 25 28 25 22 25 21 19 16 17 15 16 19 17 19 18 20 27 33
21 23 20 17 21 13 13 15 11 8 12 13 13 13 13 14 15 14 15 18 19 24 23 24 25 24 18 18 18 15 15 14 14 14 13 13 20 27
21 13 15 15 11 12 12 10 9 9 10 11 12 12 11 11 12 13 13 14 14 13 14 16 21 26 28 26 23 20 17 14 12 13 11 12 15 17
14 13 13 13 12 11 11 11 10 10 9 10 10 11 10 9 10 10 10 9 10 9 10 14 10 14 20 21 20 20 18 17 15 15 14 11 15 17
10 12 12 13 14 14 14 13 12 13 12 12 10 10 11 10 9 10 10 8 6 9 8 8 10 8 9 14 18 19 16 16 12 13 15 15 13 15
10 11 12 13 14 16 16 15 14 14 13 13 12 11 12 9 10 8 9 8 8 9 7 6 5 8 11 14 14 15 18 15 17 16 15 14 14 13
11 11 13 14 14 13 14 14 16 16 15 13 14 13 11 9 10 10 8 9 7 8 6 5 5 6 4 3 2 4 9 12 14 14 11 11 15 14
11 11 12 13 13 13 13 14 14 16 16 13 13 14 13 10 10 10 10 8 7 6 7 9 9 5 6 8 7 5 11 9 8 11 7 10 10 10
11 11 11 12 13 13 13 13 14 14 15 15 15 14 14 12 11 11 10 9 8 8 7 9 9 7 5 4 6 8 6 9 6 4 9 10 5 3
10 10 10 11 11 12 12 12 13 13 13 15 14 14 14 13 12 11 10 9 8 8 8 8 7 7 6 4 3 4 6 4 2 2 10 5 9 10

GFSNE_850_spd_024.txt.gz
Wind_Speed
18 19 19 18 16 15 14 15 16 17 23 25 19 19 18 16 19 14 17 13 17 18 20 22 26 30 30 28 27 26 24 24 28 29 26 27 28 26
20 19 18 20 20 19 17 19 19 22 27 24 26 22 18 21 21 20 17 17 21 22 23 24 24 26 27 28 31 29 27 27 26 27 27 27 28 28
19 18 20 19 21 22 21 22 21 21 27 28 22 20 22 21 18 20 24 28 25 24 27 29 31 29 29 30 33 34 31 30 30 29 29 30 29 28
20 22 24 23 24 25 25 24 23 22 24 30 28 26 25 26 26 28 29 26 25 26 24 25 26 28 28 28 29 29 34 35 33 33 31 32 31 31
22 24 25 25 25 27 26 26 25 24 24 26 28 26 26 27 28 26 27 29 26 25 30 29 30 30 28 28 31 34 34 33 36 37 36 35 33 32
32 26 26 26 27 27 26 24 26 28 28 30 32 28 26 26 26 28 29 28 28 27 28 28 26 27 31 30 29 30 32 33 38 39 40 41 40 38
36 31 24 24 26 27 30 30 27 28 29 29 27 25 23 21 19 17 19 19 23 22 23 25 30 26 20 19 26 30 31 30 27 32 37 40 42 43
37 30 23 26 24 24 23 25 25 26 27 28 32 32 34 33 32 30 27 26 27 27 25 26 29 36 35 34 25 25 27 27 31 29 27 29 36 41
29 26 27 27 27 27 25 25 24 20 22 26 29 29 29 24 23 27 29 29 30 29 27 30 28 31 30 30 30 31 34 38 38 30 30 32 32 34
25 27 27 29 29 28 27 28 26 26 26 27 28 29 27 27 27 28 29 28 30 30 29 33 31 35 33 33 33 35 35 34 33 37 38 35 37 38
30 26 24 26 24 24 25 28 27 25 23 23 26 26 28 30 30 31 34 35 39 36 28 22 25 28 29 28 27 30 30 30 29 32 32 41 42 42
31 29 26 25 26 26 23 18 22 23 25 30 32 31 30 29 28 27 27 30 32 34 32 27 30 27 27 28 23 21 23 24 22 21 23 27 29 37
31 28 24 22 22 25 27 28 27 24 25 25 22 16 15 17 18 17 19 23 26 29 23 23 27 26 24 21 22 22 22 21 18 18 17 19 19 26
27 24 26 26 22 22 20 12 16 18 13 10 14 16 16 16 16 16 16 20 23 26 25 23 25 17 20 24 21 17 14 16 17 19 20 17 19 22
23 23 14 16 18 13 15 14 12 11 13 11 12 13 13 13 11 11 11 14 17 17 17 18 26 23 22 22 21 23 17 17 16 14 13 16 16 16
20 14 14 16 13 11 12 12 11 9 9 10 11 10 11 10 10 9 11 11 14 13 10 10 12 14 20 23 24 26 21 21 19 17 17 16 15 15
13 14 15 15 15 14 15 10 11 12 11 10 10 10 10 10 7 7 10 10 10 8 10 11 10 11 13 16 19 20 20 18 18 19 18 17 14 13
13 14 15 15 15 16 17 16 14 16 14 13 12 12 11 10 9 8 10 11 10 9 11 9 8 11 10 9 12 14 15 16 16 17 13 14 15 13
14 13 14 15 15 15 15 15 17 18 15 12 14 12 11 8 11 10 8 9 8 10 8 7 7 6 11 15 12 11 15 16 17 17 16 18 18 17
15 13 13 14 15 14 14 14 15 16 17 12 12 13 13 11 10 10 9 9 8 8 8 8 10 8 6 6 7 8 5 11 15 17 15 12 10 15
13 14 13 14 14 13 12 11 12 13 14 12 11 13 14 12 11 10 10 8 8 8 9 12 11 8 6 4 9 5 5 10 8 8 10 7 11 11
14 10 11 13 13 12 12 11 11 11 11 11 9 12 14 12 12 11 10 10 9 8 7 7 8 9 6 3 7 4 8 9 6 7 6 8 6 2
14 12 10 12 13 12 13 12 12 14 13 12 8 9 14 12 12 11 10 9 11 11 6 7 7 6 6 7 3 5 6 6 3 2 10 8 5 9

GFSNE_850_spd_030.txt.gz
Wind_Speed
13 17 17 16 14 17 23 22 20 18 19 14 14 15 15 12 13 13 14 16 17 15 29 29 23 18 17 19 21 21 22 23 23 21 21 19 19 19
16 18 19 17 16 18 20 21 23 22 20 22 24 19 13 13 14 15 13 11 13 16 18 13 18 21 15 12 13 17 19 21 21 22 22 24 24 20
21 19 18 19 22 26 30 30 25 21 24 27 26 26 21 19 19 20 21 15 12 11 14 17 19 18 16 11 14 21 21 23 23 21 22 23 23 26
17 20 25 29 33 34 32 29 29 28 26 29 26 26 26 25 25 25 25 24 22 19 15 14 18 18 20 20 17 20 18 19 22 21 19 21 23 25
28 30 32 32 33 31 29 28 27 26 21 26 30 28 28 30 32 30 29 28 26 25 27 26 22 21 21 21 19 21 21 21 21 21 21 20 20 22
31 34 32 30 29 27 23 23 24 26 26 27 27 25 26 26 25 23 23 23 21 17 17 18 20 25 26 26 26 27 25 21 21 20 22 21 20 22
31 28 25 26 26 21 21 24 23 23 24 24 25 25 25 26 25 21 22 22 27 25 21 21 19 19 20 21 23 23 25 25 26 25 26 26 26 25
27 26 26 26 24 23 21 21 24 25 27 25 26 26 23 22 21 22 21 20 22 21 26 28 25 27 23 21 22 22 22 22 25 27 29 29 29 26
27 27 28 26 25 27 22 21 20 20 22 22 25 27 26 24 22 22 21 20 20 17 20 24 24 27 29 30 29 28 27 26 28 30 33 33 31 31
27 28 27 29 26 21 19 22 21 19 18 19 22 24 23 22 21 21 21 22 24 23 23 28 25 26 22 24 28 30 30 30 29 28 28 30 31 31
29 29 27 23 21 17 20 20 20 21 20 21 20 19 20 17 20 20 24 24 28 31 28 26 27 28 30 30 22 20 23 27 29 29 29 31 30 31
28 25 21 19 17 17 18 19 22 23 19 16 16 20 24 28 29 29 28 29 28 26 18 17 16 15 18 24 29 27 23 20 22 26 27 25 26 28
22 20 17 15 17 16 16 15 16 13 16 17 15 9 6 7 8 10 13 16 21 23 19 17 15 13 15 16 12 9 14 17 14 13 14 14 16 20
19 16 15 16 19 13 11 11 11 10 7 5 6 6 6 6 5 7 9 11 12 12 10 16 20 18 16 17 19 11 12 15 18 11 14 16 18 20
16 13 16 18 12 10 13 10 9 10 9 8 8 8 8 8 7 7 7 10 10 10 11 13 15 15 15 19 22 17 17 13 13 16 15 14 16 16
18 16 15 14 11 12 12 10 10 10 8 8 7 7 8 8 6 5 4 4 4 5 6 7 9 11 14 13 16 17 15 14 9 14 15 16 15 15
18 15 14 15 14 14 12 10 11 12 9 9 9 9 6 5 4 2 3 4 4 0 4 7 8 9 9 11 13 13 13 14 17 19 19 19 19 17
15 13 14 15 16 15 14 11 11 12 12 10 9 9 7 7 5 5 3 4 5 6 4 4 3 5 8 9 11 13 12 10 10 12 12 14 18 15
14 12 12 14 15 15 14 13 13 13 11 8 9 9 8 6 6 6 4 3 3 4 4 5 6 5 2 3 4 5 5 7 8 11 15 18 20 17
15 14 13 14 15 15 15 14 14 13 10 7 7 8 6 9 6 6 6 5 4 3 3 5 6 3 2 5 7 8 7 4 5 7 11 16 18 18
15 15 13 14 13 13 14 12 13 14 11 6 5 6 6 6 6 5 5 5 6 7 6 5 4 4 4 5 7 5 3 6 6 5 5 7 7 8
15 13 13 13 13 12 12 12 12 12 12 7 6 6 6 5 5 6 6 7 7 9 9 6 5 5 3 4 5 5 4 5 5 4 5 6 4 3
15 13 12 12 12 12 12 12 12 12 12 10 9 8 8 5 5 5 6 8 8 8 4 2 2 3 4 5 3 3 3 3 3 2 3 5 6 4

GFSNE_850_spd_033.txt.gz
Wind_Speed
14 15 18 19 18 18 15 16 18 19 24 24 16 16 16 13 13 14 13 12 11 11 15 18 22 26 26 22 15 16 17 18 19 18 17 18 15 18
16 18 20 20 20 19 21 24 25 23 24 26 29 25 20 20 18 17 18 17 15 12 10 12 16 17 30 31 21 16 13 8 13 17 19 20 20 21
20 18 17 20 24 28 30 32 32 28 28 33 31 29 26 22 23 22 22 21 19 16 14 12 13 14 14 22 22 13 9 13 12 16 16 19 22 24
19 23 25 28 32 32 31 30 30 28 27 29 29 24 20 22 24 24 23 24 26 24 24 21 16 15 17 17 18 15 12 14 14 13 14 15 18 24
25 28 31 33 32 29 27 26 25 25 23 23 27 26 25 23 23 24 23 23 24 24 24 25 27 23 19 19 21 19 18 16 18 17 15 13 14 18
29 31 30 27 26 27 27 25 24 24 24 23 24 24 23 24 26 24 22 21 22 20 22 21 22 22 26 26 24 21 17 16 19 19 18 18 17 17
30 27 26 25 24 24 24 25 25 26 28 29 29 26 23 20 21 22 23 20 22 23 21 22 21 20 18 17 21 23 25 26 24 25 25 25 23 22
28 27 26 25 25 24 26 28 25 24 24 25 27 27 26 23 22 22 22 22 25 23 19 15 23 25 24 21 18 20 20 19 22 25 26 26 25 25
28 28 28 27 27 28 25 21 18 19 21 23 26 26 26 24 21 22 21 21 23 21 19 24 20 23 26 27 27 27 24 23 22 23 23 24 25 26
27 27 25 24 21 20 20 21 22 21 18 18 19 19 19 21 21 21 20 20 20 22 20 26 25 24 21 24 26 28 31 30 30 28 27 28 29 30
24 20 19 18 16 16 19 22 21 20 21 22 23 24 23 19 16 13 16 16 21 25 24 27 30 27 24 27 27 27 26 27 30 31 31 30 30 29
19 18 15 14 16 18 20 21 21 21 16 12 15 15 17 20 24 26 27 28 29 30 19 12 11 11 10 12 17 25 29 24 20 21 25 27 27 29
19 17 15 16 19 18 15 14 15 17 17 15 13 11 8 7 9 13 15 18 19 21 20 19 16 12 11 14 12 6 11 25 25 21 19 22 23 24
18 17 17 20 17 14 14 15 14 14 14 13 12 10 9 8 6 6 9 11 13 15 14 12 14 13 13 14 14 7 4 11 17 19 16 18 18 18
19 19 18 18 16 15 13 10 11 12 11 10 9 10 10 10 9 8 7 10 12 12 11 12 15 14 14 13 13 11 9 9 10 14 20 16 15 16
19 18 17 16 14 12 11 9 11 13 10 10 11 11 9 7 5 5 3 2 6 7 9 9 10 11 13 14 13 12 14 11 8 14 15 18 18 17
18 16 15 14 15 13 10 10 11 13 12 11 11 11 7 4 4 3 2 4 4 3 4 5 9 10 8 9 11 10 10 10 10 16 19 18 20 20
18 16 15 15 16 16 15 13 12 12 11 9 10 10 8 6 6 5 3 3 2 4 2 2 4 2 4 7 9 9 11 11 10 13 15 19 21 21
17 16 14 15 16 15 16 15 16 15 11 8 8 9 8 6 5 6 4 2 0 2 3 5 6 4 3 3 3 5 7 5 6 8 12 15 17 15
16 16 15 14 14 14 15 15 15 15 12 8 8 8 8 8 7 6 6 5 5 5 5 6 6 6 5 4 5 6 7 3 3 3 7 12 15 15
15 14 14 14 14 13 13 13 14 15 14 10 9 9 9 8 7 7 7 8 9 9 9 8 6 6 5 7 7 6 3 4 5 4 4 6 6 7
13 13 12 13 13 13 12 12 13 13 12 11 10 10 10 9 8 8 9 11 11 12 11 7 5 5 6 6 6 2 2 4 6 4 3 5 4 2
12 12 11 12 12 12 12 12 12 13 13 12 11 11 11 10 8 9 9 10 12 10 8 4 4 4 4 5 5 4 3 3 3 3 3 4 5 5

GFSNE_850_spd_036.txt.gz
Wind_Speed
18 18 18 19 20 20 20 18 20 21 32 33 34 30 27 24 20 20 17 16 14 14 13 11 11 13 16 27 27 21 20 16 17 17 17 18 18 18
17 18 18 18 18 20 22 25 27 28 33 37 39 37 30 27 25 22 23 24 21 18 17 13 11 11 14 20 25 23 23 17 17 17 17 18 19 20
16 17 17 21 25 27 31 32 31 29 33 39 37 34 31 26 22 24 26 25 25 23 23 21 17 12 13 12 22 21 20 25 23 17 16 17 19 20
19 22 25 28 31 33 31 28 27 25 27 32 34 32 28 22 21 24 27 25 24 25 24 25 25 22 15 13 15 16 25 26 23 20 15 16 18 21
24 27 31 32 32 29 28 29 27 25 22 24 30 30 28 24 24 24 23 24 22 22 22 23 23 24 23 19 15 16 14 14 11 14 18 14 17 20
28 30 30 29 29 29 28 27 27 26 26 27 29 32 31 25 22 22 23 22 22 21 20 19 21 21 21 22 23 19 18 16 16 15 15 17 18 17
31 30 30 29 27 26 26 27 27 30 29 26 28 27 26 24 23 22 21 19 22 22 21 19 19 21 20 18 17 21 23 21 22 21 19 18 20 18
31 31 31 30 29 24 26 29 26 26 26 25 26 26 26 25 21 21 22 22 25 24 23 21 16 19 24 23 19 18 18 22 24 24 25 23 23 24
29 30 29 25 23 22 20 19 20 21 22 22 24 25 25 23 22 24 23 22 25 23 22 26 21 21 20 25 26 24 22 20 19 20 22 24 24 24
26 24 22 21 17 17 20 22 21 20 20 20 22 22 22 21 20 20 22 22 22 22 20 25 23 21 18 20 23 28 30 29 27 23 22 22 22 22
23 19 19 19 15 19 21 24 23 20 16 19 17 19 20 21 22 22 18 18 24 19 16 18 23 24 24 23 23 26 29 31 32 31 29 28 27 27
22 19 17 17 17 20 19 21 20 21 21 19 18 16 16 18 19 21 24 25 23 23 19 16 11 8 7 8 10 17 26 29 29 28 29 30 30 30
22 21 19 18 19 18 18 18 19 21 19 18 17 13 11 9 7 8 13 20 25 26 21 16 16 12 8 9 8 5 7 16 29 26 23 22 24 27
22 21 20 19 18 18 17 15 15 17 16 14 12 12 12 12 11 9 8 10 12 14 13 14 13 11 10 10 11 5 3 6 12 24 22 20 19 21
21 19 18 18 18 16 14 12 13 15 14 13 13 14 13 12 11 9 9 9 12 13 13 14 13 13 12 11 11 6 6 7 7 13 19 20 19 21
20 19 17 17 15 15 14 12 13 14 15 13 13 14 11 8 6 7 6 5 6 6 6 7 8 9 11 10 10 12 8 6 5 12 15 16 20 18
19 18 16 15 16 15 14 13 13 14 12 10 12 13 11 9 8 7 7 6 5 4 3 2 2 7 8 8 8 8 7 8 8 11 14 18 19 20
17 17 17 16 16 17 17 16 16 15 12 10 11 12 11 10 9 8 6 5 4 4 4 5 5 2 3 6 9 10 8 9 9 11 14 18 19 19
15 14 15 15 15 15 16 16 17 18 15 10 10 10 10 10 9 9 8 6 3 4 5 6 6 6 3 4 4 4 5 6 5 6 8 8 11 14
14 14 13 14 14 14 15 15 16 16 15 12 10 11 10 10 9 9 9 8 8 7 7 7 6 5 4 3 4 5 6 4 2 3 5 10 13 14
13 13 12 12 12 13 13 14 15 15 15 14 13 12 11 10 9 9 9 9 10 10 9 8 7 6 5 5 6 5 4 3 3 3 4 4 3 6
14 13 12 11 11 12 12 12 13 14 14 13 12 12 12 12 10 10 10 10 11 12 10 6 3 3 4 5 5 2 4 2 4 3 3 3 2 1
13 13 12 11 11 11 12 12 13 13 14 14 13 12 12 11 10 10 10 9 11 10 7 3 2 1 1 2 3 3 3 2 1 2 2 2 3 3

GFSNE_850_spd_042.txt.gz
Wind_Speed
14 13 14 14 15 16 19 20 22 29 32 31 30 27 27 27 27 27 27 27 27 29 26 28 25 21 19 19 18 16 19 30 32 32 25 31 29 28
13 15 15 14 16 18 21 23 24 28 35 34 33 30 28 28 28 28 29 29 27 27 25 28 28 26 22 20 21 20 14 19 35 26 10 24 27 26
15 14 15 16 19 22 24 26 27 28 33 38 33 31 30 29 28 23 23 25 25 26 26 26 23 23 22 21 20 18 20 15 24 37 34 20 20 23
14 15 17 19 23 25 25 26 27 28 31 36 33 31 29 27 27 26 25 24 23 22 23 26 26 22 22 20 20 19 14 14 14 21 29 19 22 14
13 16 20 23 24 24 25 26 27 28 27 30 33 26 26 25 26 24 21 23 23 23 28 27 22 20 21 20 20 19 18 13 13 17 20 31 37 23
15 19 20 20 21 21 24 24 24 25 24 25 26 26 25 23 22 23 22 19 20 21 20 22 22 22 20 19 19 21 20 18 14 10 21 23 28 35
17 17 17 20 28 24 19 19 20 20 21 22 24 23 23 22 21 20 21 20 20 18 19 18 16 16 14 15 14 16 19 20 18 13 12 25 22 29
16 17 17 19 16 22 20 20 15 18 21 22 24 24 24 23 21 22 21 19 20 14 17 19 16 14 13 11 14 16 15 18 21 20 16 14 12 23
15 16 16 15 19 17 18 18 21 20 23 23 25 24 24 21 21 20 20 20 19 16 15 18 15 15 14 15 19 21 20 19 20 23 24 20 18 16
15 14 16 17 17 20 18 20 19 18 18 19 20 23 23 21 23 21 22 21 21 18 17 20 16 17 15 15 18 22 22 23 21 20 21 24 25 23
14 14 16 15 18 20 18 19 19 18 16 19 21 22 20 18 18 18 19 19 18 18 16 15 13 14 13 14 15 20 21 24 27 25 22 21 25 28
14 14 17 21 23 17 17 17 17 17 19 18 18 16 15 14 16 14 15 15 16 16 14 9 10 10 10 9 11 14 17 23 25 30 29 25 23 20
14 14 14 21 20 18 16 13 17 19 17 17 17 14 13 12 12 13 14 14 13 13 13 11 10 11 10 7 5 5 7 11 20 25 31 33 30 26
14 14 17 20 18 16 15 17 17 14 14 14 14 13 13 13 12 13 14 15 14 14 13 12 13 12 10 9 8 6 6 8 11 12 19 29 34 33
14 16 17 17 16 13 16 15 13 12 12 11 12 13 14 13 11 12 11 10 12 12 12 11 14 12 11 10 7 5 6 8 7 8 11 21 22 31
14 17 16 15 15 15 12 12 11 13 12 11 11 13 13 12 12 12 12 10 7 3 4 8 12 12 11 11 10 8 7 6 6 7 7 14 19 19
17 14 11 11 10 10 9 10 10 12 11 11 11 12 12 12 12 12 12 11 11 9 6 4 3 7 10 11 8 8 6 5 5 7 6 8 16 21
15 11 11 11 11 9 9 9 9 11 13 11 11 12 12 12 13 11 10 9 9 9 9 8 7 3 7 7 8 3 2 2 5 8 7 8 9 12
13 11 12 11 11 10 9 9 9 11 13 12 10 11 11 11 11 11 10 8 8 8 8 8 8 6 6 3 2 4 4 2 3 3 6 7 7 8
15 11 11 11 11 10 9 9 10 11 11 12 11 10 10 11 10 9 9 10 9 8 8 6 6 5 3 4 0 4 6 5 3 3 5 8 10 7
14 13 13 11 11 10 11 11 11 10 11 11 11 11 10 9 9 9 9 10 10 8 8 7 8 9 5 5 3 3 6 5 5 5 3 2 4 4
16 15 14 13 12 11 11 11 10 9 9 10 10 10 9 8 9 9 9 9 9 9 8 8 7 4 4 5 5 5 4 4 4 4 4 5 7 5
17 17 15 15 13 12 12 11 10 10 10 9 9 9 10 8 8 8 8 8 8 8 8 7 5 4 3 3 4 1 5 3 1 3 2 3 4 5

GFSNE_850_spd_045.txt.gz
Wind_Speed
17 20 16 13 15 16 17 18 24 29 31 31 31 30 29 28 28 28 29 31 32 35 37 38 36 32 30 29 27 26 23 24 23 25 27 29 26 34
18 18 14 15 15 15 17 22 26 30 35 32 33 32 31 30 29 30 29 31 31 31 32 30 29 27 28 29 28 27 26 22 24 24 25 16 21 26
18 14 15 14 15 17 22 26 28 29 33 35 35 34 32 31 30 30 29 29 31 31 29 30 29 28 27 27 27 26 26 21 20 22 26 18 16 15
11 12 13 14 18 22 25 26 28 29 31 35 34 33 31 28 28 29 28 26 27 27 28 26 23 24 28 29 28 24 24 20 16 19 20 21 18 21
11 12 15 18 22 22 23 24 25 27 29 31 32 30 28 26 28 27 26 26 24 26 27 29 29 27 25 24 27 23 23 20 17 14 16 14 17 30
12 15 18 19 19 19 22 22 21 23 24 25 26 26 25 25 24 25 25 21 21 21 22 22 24 22 21 21 20 20 21 20 18 15 14 14 12 16
16 16 16 18 26 25 21 20 19 20 20 21 23 25 25 25 24 26 27 25 22 22 22 22 22 17 18 20 14 14 19 19 18 17 15 14 14 16
15 15 16 17 16 22 19 24 25 19 22 24 27 26 26 26 25 26 23 24 25 18 19 21 20 19 16 14 10 12 14 15 15 19 18 13 9 15
13 15 15 14 18 17 18 22 21 22 23 24 25 24 26 22 25 26 22 25 24 22 19 22 18 18 14 15 14 13 18 19 17 15 19 17 13 10
13 14 14 15 17 24 25 20 19 19 19 19 21 24 25 26 25 24 25 28 26 21 20 25 21 22 19 20 21 22 19 20 21 16 15 19 18 14
12 13 14 15 18 23 24 18 19 18 16 20 22 22 24 21 18 18 23 20 21 21 19 18 23 18 17 18 18 19 20 19 22 21 17 15 18 19
12 12 16 22 25 24 21 17 17 16 20 21 18 19 19 18 16 17 17 21 18 17 11 14 12 10 12 16 15 15 19 20 20 23 23 19 16 17
12 11 10 22 22 20 18 16 17 23 18 16 17 17 16 15 14 14 16 18 19 20 15 12 13 11 13 15 5 8 9 13 14 20 24 26 22 18
13 12 15 19 18 16 15 15 17 14 15 15 15 15 15 15 15 15 15 16 17 19 16 15 14 11 13 13 9 6 7 8 9 9 16 23 28 26
12 13 16 17 16 14 13 16 15 13 13 13 14 14 15 16 14 16 15 15 16 15 14 14 13 11 12 12 13 5 5 7 8 10 9 17 20 29
11 14 20 14 15 15 14 11 12 12 13 13 14 15 14 14 14 14 15 16 19 10 3 9 11 12 12 11 10 10 7 6 7 8 8 10 18 18
19 19 11 11 11 10 10 11 11 11 11 12 11 13 14 14 14 13 13 13 14 15 13 10 10 7 11 11 12 10 8 8 7 7 6 5 13 18
18 13 12 13 12 11 10 11 10 11 11 11 11 11 13 13 13 13 12 11 12 12 12 13 13 16 9 12 12 8 4 2 2 3 3 6 5 12
18 12 13 13 13 11 10 10 10 11 14 10 11 11 12 12 12 12 12 12 11 11 11 12 13 12 13 5 2 4 2 4 2 1 4 6 6 9
17 15 14 13 13 11 11 10 10 10 9 10 9 10 10 11 11 11 10 12 12 11 11 9 9 9 8 8 5 4 4 6 3 1 2 6 8 6
18 18 17 16 15 13 13 13 11 9 10 10 8 9 10 9 9 10 10 11 10 10 10 10 12 14 10 6 5 7 3 6 5 7 7 4 3 6
23 21 20 18 16 16 15 14 12 10 9 10 9 8 8 8 8 9 10 10 10 10 9 11 10 8 4 7 9 7 6 2 2 3 4 6 5 4
22 21 21 20 19 19 17 14 13 12 10 10 8 7 8 6 8 8 9 9 10 10 10 9 9 8 7 6 7 7 3 3 2 2 1 4 6 9

GFSNE_850_spd_048.txt.gz
Wind_Speed
23 22 17 20 14 17 15 17 17 27 32 31 27 28 24 24 30 29 31 32 32 34 35 36 36 34 33 29 26 29 31 30 27 25 24 25 28 32
24 20 20 22 15 17 20 20 22 26 34 28 30 30 28 28 28 33 35 36 39 38 36 35 32 33 32 31 28 28 29 29 28 25 22 22 20 22
21 20 13 13 14 16 19 23 24 23 29 31 29 28 28 31 33 39 36 36 35 32 30 32 30 32 31 28 29 28 29 29 27 24 22 19 24 20
13 11 13 11 15 19 20 21 23 25 28 34 37 33 30 30 34 29 30 27 29 29 31 26 30 32 30 25 25 26 29 30 28 22 22 18 20 28
13 13 14 14 18 21 25 28 31 32 26 26 31 29 28 29 28 27 26 26 26 25 23 24 26 27 24 28 31 26 25 25 27 21 20 19 16 20
14 14 15 17 20 23 27 31 27 24 25 24 26 28 28 26 26 27 27 26 30 27 26 26 26 24 26 25 20 24 24 22 23 20 20 18 14 17
13 17 15 18 22 23 22 26 25 26 28 24 26 28 29 29 27 27 29 30 28 25 25 24 24 22 24 22 20 20 23 20 18 18 20 18 12 11
14 16 16 15 17 20 19 22 24 27 27 26 27 29 28 27 25 27 31 32 32 29 25 28 22 23 23 22 20 11 15 14 13 14 17 17 12 8
14 16 17 12 19 21 24 27 28 24 20 22 25 24 25 28 30 33 30 28 29 31 29 30 24 26 22 19 21 18 10 15 17 16 15 14 13 9
14 17 15 15 22 25 25 28 26 20 15 17 21 25 27 25 22 23 25 25 26 23 21 26 26 28 24 24 21 20 23 21 19 19 18 14 12 11
18 13 14 18 23 24 26 27 24 20 11 17 24 25 17 21 20 24 21 23 26 26 20 19 22 22 19 18 18 19 20 21 23 23 18 15 11 10
12 13 16 18 21 24 25 23 22 19 22 20 14 14 17 18 16 16 18 21 22 27 20 23 19 15 14 11 13 18 16 17 18 18 17 18 13 9
18 15 13 20 22 23 21 19 17 20 18 18 19 16 18 17 17 14 14 16 20 23 23 20 21 16 14 18 20 11 10 13 13 13 16 18 18 13
19 17 15 19 19 17 16 14 15 15 16 20 15 18 19 17 17 14 16 17 18 22 24 16 18 17 15 16 18 15 6 7 7 6 6 13 17 18
18 16 14 15 16 14 13 14 16 16 17 20 16 18 19 17 18 17 16 15 16 24 9 7 12 15 13 14 16 15 17 6 7 6 6 8 9 16
18 15 16 20 11 13 13 14 15 16 16 17 20 14 16 19 18 16 17 17 15 18 18 9 8 12 15 13 12 13 10 9 6 7 6 7 9 11
20 24 24 15 12 15 12 13 15 14 16 17 19 14 15 19 17 13 16 16 13 15 14 14 16 17 7 10 11 10 12 12 8 6 4 4 6 11
27 25 23 14 14 16 14 12 14 14 16 18 13 14 14 17 16 14 15 15 15 13 13 14 17 16 14 8 10 10 12 6 5 4 0 1 2 3
25 23 19 13 16 17 15 12 14 15 19 14 15 12 13 13 13 15 14 15 15 13 9 13 14 13 14 15 6 3 5 7 5 3 1 1 2 2
23 23 19 16 17 16 14 13 16 19 18 14 15 10 11 12 11 13 13 15 13 16 12 10 13 15 13 11 10 6 6 5 4 1 3 1 3 3
23 23 20 17 17 18 17 18 21 21 16 13 11 9 11 10 9 10 12 13 11 14 10 12 13 9 6 5 6 13 6 4 5 5 5 4 1 2
22 23 24 23 22 21 19 20 22 19 14 11 12 14 10 10 7 9 10 13 12 15 12 8 8 10 8 11 6 12 6 2 2 1 2 4 3 2
21 22 23 22 20 21 22 22 21 19 16 17 16 13 11 10 5 8 7 10 9 13 14 6 5 6 10 6 6 6 5 3 4 4 2 1 3 5

GFSNE_850_spd_051.txt.gz
Wind_Speed
25 24 25 20 19 20 20 15 15 20 31 30 29 19 22 23 23 26 29 32 34 37 39 39 37 32 28 28 29 29 28 26 24 25 26 26 26 26
27 30 24 19 17 13 16 16 16 19 28 26 24 25 25 26 27 32 37 39 41 40 37 30 29 27 30 29 27 27 27 27 26 26 25 25 24 23
27 25 19 13 13 12 14 16 18 18 25 35 35 37 36 30 31 34 36 35 30 27 24 25 26 26 26 29 31 25 22 25 27 27 25 24 25 24
19 16 14 12 12 16 19 21 24 27 31 37 39 36 33 31 32 32 27 25 24 23 24 25 26 23 22 24 26 27 26 24 26 24 24 24 25 25
15 13 14 15 17 20 24 26 27 31 30 27 31 31 30 28 26 24 24 24 24 26 28 27 24 25 27 27 25 23 22 25 26 25 24 23 24 24
15 12 13 16 19 22 26 28 27 30 27 29 32 29 26 23 22 25 26 26 29 27 24 23 22 23 23 22 23 23 23 24 22 23 22 21 21 21
19 16 17 19 22 25 24 25 28 28 30 32 33 29 25 25 24 20 28 33 35 34 32 27 25 22 22 20 20 22 24 23 21 19 17 16 17 17
16 16 18 21 23 21 23 25 25 28 31 28 26 25 25 22 28 30 31 30 33 27 25 26 21 22 22 21 19 21 22 10 12 12 11 12 13 15
17 16 18 21 22 22 24 26 25 26 23 18 19 21 25 25 27 25 24 26 29 25 25 26 22 24 20 20 20 20 18 16 11 12 14 15 12 13
19 19 21 22 22 23 26 25 25 24 19 14 18 24 26 28 20 23 24 26 26 23 22 25 23 24 20 18 17 17 18 18 16 17 16 16 13 11
20 19 20 19 21 24 24 26 25 21 17 16 16 13 11 12 15 19 18 21 26 27 25 19 24 25 20 16 10 10 16 18 17 15 15 17 14 10
21 23 19 19 21 22 24 25 23 19 18 15 15 11 10 13 15 15 17 19 22 27 24 26 25 19 20 14 15 20 15 11 13 13 14 15 13 10
21 18 18 21 21 21 23 22 18 16 15 15 18 15 15 16 14 14 13 15 19 22 25 26 27 19 15 23 19 17 19 7 7 9 12 12 13 13
20 18 18 20 20 19 18 14 13 13 17 16 19 18 17 16 17 15 14 15 15 21 27 14 14 14 14 19 19 18 18 2 3 2 3 5 11 15
21 19 19 17 13 18 13 12 12 15 18 17 20 20 18 15 18 18 14 12 11 12 17 18 9 11 14 15 17 15 18 14 5 1 3 1 4 11
22 23 19 17 18 19 15 14 14 15 17 17 20 22 16 15 18 13 14 15 15 10 9 12 12 15 16 10 11 12 10 11 10 4 3 4 3 7
24 21 20 22 25 21 16 16 15 16 16 18 19 22 16 16 14 11 13 15 15 15 13 12 10 13 16 6 6 7 13 14 10 2 1 1 3 6
24 27 28 28 27 21 17 17 16 14 17 19 20 18 16 15 13 11 13 14 16 13 10 13 15 13 11 8 4 5 9 11 9 5 2 4 4 4
27 27 26 24 23 18 16 18 17 15 18 20 21 16 16 12 10 11 13 13 13 11 8 11 14 14 13 10 5 6 6 5 5 2 0 2 3 4
27 27 26 22 18 17 17 17 15 18 19 21 23 15 12 12 10 9 11 13 13 14 13 7 8 9 11 10 7 8 5 4 1 1 4 3 2 3
26 27 25 22 19 18 17 18 18 19 20 21 19 13 10 12 11 8 8 10 10 13 15 13 8 7 5 5 5 8 4 4 5 2 2 1 1 5
24 23 24 22 21 20 19 19 21 21 21 21 17 14 12 14 11 8 6 9 10 12 13 9 6 5 9 8 7 9 6 4 4 3 2 1 2 2
24 24 23 22 21 20 20 21 23 22 21 21 19 16 17 15 10 9 6 7 10 12 12 8 5 3 6 9 6 2 4 5 6 5 4 3 1 1

GFSNE_850_spd_054.txt.gz
Wind_Speed
24 25 26 29 28 21 21 19 19 17 26 24 17 19 20 23 24 26 28 31 34 36 39 42 40 29 25 25 26 28 28 26 27 27 28 28 28 28
26 29 31 28 18 14 14 14 15 17 23 27 29 30 34 36 35 33 34 34 35 34 32 26 22 21 21 23 24 24 24 25 25 26 28 29 29 27
27 23 19 15 15 15 15 15 18 19 25 32 35 36 36 33 32 31 30 29 27 23 22 21 22 23 23 22 21 22 22 24 25 23 26 28 28 28
23 21 17 14 15 16 19 20 22 25 28 33 35 32 32 32 28 25 23 22 22 22 23 24 25 26 25 25 27 27 25 23 23 28 29 29 29 29
22 16 16 17 17 19 20 22 25 27 24 28 31 33 33 30 23 20 20 21 20 23 25 26 24 22 21 23 23 24 23 24 24 26 30 30 31 30
20 21 22 19 18 21 23 26 25 23 25 28 32 34 32 26 20 21 20 25 30 30 26 22 21 23 22 22 22 20 21 23 25 25 26 26 27 27
22 20 20 21 22 24 25 23 23 24 28 29 32 30 28 24 21 23 29 30 28 23 19 19 19 17 17 20 21 21 22 20 21 26 24 21 21 21
20 17 18 20 23 23 23 22 22 25 28 30 28 26 25 23 24 27 29 26 29 23 27 20 19 16 15 17 19 19 21 19 19 16 14 13 14 12
20 20 19 21 23 23 23 21 22 24 25 26 25 24 27 28 28 26 22 25 25 25 23 26 20 21 18 17 15 17 18 17 16 17 11 12 14 13
22 23 22 21 23 24 22 22 22 22 23 20 19 21 21 19 16 18 21 23 23 23 21 25 20 20 20 16 11 8 7 11 16 18 17 15 15 13
22 22 20 23 22 22 22 23 23 22 20 17 15 15 16 15 15 18 20 22 26 23 19 19 23 26 23 15 7 13 14 19 19 19 18 17 16 14
18 22 22 22 20 21 23 22 23 19 16 14 12 13 12 14 14 13 16 18 20 25 18 28 30 28 20 17 13 14 16 23 14 15 16 15 14 13
20 20 19 19 19 21 21 21 20 17 14 14 13 14 15 16 14 13 14 15 18 22 23 26 27 20 16 20 20 17 17 20 7 10 13 13 14 13
22 20 19 20 20 19 17 17 18 16 14 14 16 16 18 21 17 18 16 13 14 18 19 15 15 13 14 19 21 17 15 18 2 4 6 9 12 15
23 19 20 22 22 16 13 17 16 16 15 15 17 18 19 21 18 17 12 11 13 12 12 11 12 12 15 16 17 16 15 14 11 4 3 1 4 14
25 23 22 22 24 21 18 19 18 16 16 16 18 19 21 21 17 13 15 16 15 12 7 9 11 13 14 13 10 9 9 13 11 4 1 1 2 8
22 24 24 25 26 25 23 21 19 16 17 17 17 19 21 20 16 10 13 14 14 14 11 8 6 8 9 8 6 6 9 13 5 2 0 1 2 5
26 28 27 24 25 26 28 24 21 17 16 17 17 18 21 19 15 11 11 12 13 11 10 11 12 9 6 3 3 3 6 13 11 6 2 1 2 3
27 28 28 25 25 23 22 21 19 16 15 17 16 18 21 18 13 11 11 11 11 11 11 9 11 12 11 8 4 6 7 5 6 3 2 2 1 3
32 29 30 27 24 22 19 18 18 16 17 16 16 18 20 15 11 10 10 11 11 12 12 10 7 8 10 8 7 8 4 5 4 3 4 3 2 1
32 32 29 27 22 20 19 18 17 19 19 17 15 17 18 13 10 10 10 9 10 12 12 11 7 9 6 4 4 5 1 4 4 4 2 1 1 3
26 29 28 26 22 19 19 20 20 19 19 20 17 18 17 14 10 11 10 9 8 11 11 10 6 4 6 5 4 6 4 3 3 3 3 2 1 3
23 24 25 22 23 20 18 20 19 20 18 17 17 18 16 14 10 12 10 10 9 10 10 7 4 3 3 6 6 1 2 4 4 4 5 4 3 3

GFSNE_850_spd_060.txt.gz
Wind_Speed
17 17 18 20 20 18 16 15 16 21 20 13 15 13 16 25 30 31 30 30 30 31 33 33 34 34 30 28 28 27 27 27 28 29 30 29 30 31
16 17 19 21 20 17 14 13 17 18 20 22 23 22 26 28 28 29 30 29 29 29 29 28 28 26 24 24 25 26 27 26 27 26 26 27 28 30
16 19 22 22 19 16 15 15 17 19 22 24 24 28 28 27 28 28 28 27 25 23 22 23 24 26 27 28 28 29 27 28 28 27 28 27 27 28
18 22 23 20 18 17 17 19 19 19 21 25 29 29 27 26 27 28 26 23 22 20 21 24 26 28 28 29 30 30 30 28 28 29 28 28 28 28
22 23 22 20 19 20 21 20 19 20 22 26 28 28 28 27 28 26 25 23 22 24 23 21 18 19 21 22 23 24 27 30 29 28 28 29 29 29
23 23 23 21 21 21 19 18 19 21 22 24 26 26 27 27 27 27 28 26 25 20 16 13 17 17 17 18 20 21 21 24 28 28 28 28 28 29
23 23 24 21 21 20 19 19 20 22 22 23 25 26 27 27 25 25 26 27 26 17 19 21 19 17 16 17 20 20 20 22 24 26 27 29 31 31
25 25 25 20 21 21 21 21 22 22 22 24 24 26 27 26 23 23 24 24 22 23 28 29 23 19 16 18 19 19 21 22 22 24 26 28 30 29
25 27 25 22 22 23 23 23 23 23 24 23 25 25 27 22 22 23 22 22 24 28 27 30 20 18 18 21 22 20 20 17 16 17 20 23 25 27
27 27 26 25 24 23 24 25 23 25 23 24 25 25 23 20 19 21 23 25 27 25 21 26 16 22 22 18 16 16 17 17 19 22 23 24 25 26
27 26 26 27 24 21 23 23 24 24 22 24 24 22 19 18 17 20 22 23 28 29 18 13 21 25 21 15 12 14 15 17 23 25 27 29 31 29
31 28 26 27 25 22 23 22 23 22 21 22 21 19 17 17 16 17 20 21 22 26 13 22 22 20 24 19 25 22 20 17 21 24 27 25 19 21
34 33 28 24 24 24 24 24 23 19 20 20 19 17 17 17 16 16 17 18 20 22 20 18 24 20 16 27 29 27 26 19 19 19 16 14 13 14
38 35 32 23 22 24 24 25 25 21 21 19 19 19 17 16 15 16 17 17 17 20 21 18 24 22 22 27 30 30 27 16 15 17 14 10 10 13
38 34 31 26 24 25 26 25 25 23 22 21 20 20 17 16 16 16 16 17 16 15 17 17 18 19 20 24 28 27 26 21 11 22 9 8 9 11
37 37 32 30 26 26 26 28 28 26 25 25 22 20 17 17 16 16 17 17 17 15 10 12 14 16 21 22 22 20 19 18 22 8 8 8 7 9
37 37 27 27 29 27 27 28 28 29 26 27 24 21 20 18 16 16 17 15 16 17 17 13 12 15 17 19 19 13 17 16 16 6 7 8 9 10
35 36 24 26 26 27 26 29 27 28 25 25 27 24 22 18 16 16 16 14 15 15 16 16 18 14 7 8 9 9 11 13 13 11 10 9 8 10
28 29 25 23 25 27 25 24 27 24 20 21 24 23 20 17 16 15 14 12 13 13 11 13 14 12 13 12 7 5 12 11 12 9 9 9 11 12
24 28 21 23 24 24 23 24 26 23 20 20 21 19 18 16 15 13 12 11 12 11 10 9 9 8 11 12 11 8 7 9 10 10 10 10 10 9
18 18 20 23 25 25 22 21 19 20 20 19 19 20 18 16 14 12 11 10 11 10 10 9 7 6 7 7 8 10 6 5 8 11 12 9 7 7
12 15 18 20 23 20 21 21 18 18 19 20 19 19 19 18 15 13 11 10 10 9 9 8 7 5 5 6 8 7 5 3 6 7 10 10 11 8
15 10 12 13 14 16 18 18 16 18 19 18 20 19 19 19 16 14 12 11 9 7 8 6 5 5 5 5 5 5 5 2 3 4 6 7 8 7